sat.trackr.live / text

‹ back to catalog

LEMUR-2-TILLINFINITY

NORAD 63356 · 2025-061F

PAYLOAD ACTIVE UNKNOWN

§ Identity

Operator
Country
US
Launch date
2025-03-26
Launch site
RLLB
Launch vehicle
Mass (kg)
RCS (m²)

Purposes: earth_obs

External: N2YO · Heavens-Above · Gunter

§ Orbital elements

Epoch: 2026-09-19T22:07:02.776224Z

Period
95.02 min
Inclination
97.5724°
Eccentricity
0.0016045
Mean motion
15.15402768 rev/d
Perigee alt
508.7 km
Apogee alt
530.8 km
Semi-major
6,897.9 km
B*
1.3400e-4
RAAN
238.4617°
Arg perigee
281.7022°
Mean anomaly
78.2409°
Rev number
8,198

§ Raw data

LEMUR-2-TILLINFINITY1 63356U 25061F   26262.92155991  .00002469  00000+0  13400-3 0  99972 63356  97.5724 238.4617 0016045 281.7022  78.2409 15.15402768 81983

JSON: /api/v1/satellites/63356 · /tle

For live sub-satellite position, see the globe view (requires WebGL).

§ Visibility from observer

Set your observer location to see the next 7 days of passes ≥ 10°. The values pass through the URL so the page stays shareable.

No JS? Fill the form by hand. The geolocation button needs JavaScript.